This demonstration page uses our WeatherBlox Daily Observations layout. Learn more.

38.80484, -77.04692

Hourly Observations for September 18, 2016

Temp ( °F °C ) Dew Point ( °F °C ) Humidity (%) Winds ( mph kmh ) Pressure ( in mb ) Visibility ( mi km ) Precip ( " mm )
12:52 am 00:52 Partly Cloudy 74 23.3 69 20.6 85 85 S 9 15 30.08 1019 10 16.0934 0 0
1:52 am 01:52 Mostly Clear 73 22.8 69 20.6 87 87 S 9 15 30.07 1018 10 16.0934 0 0
2:52 am 02:52 Mostly Clear 72 22.2 69 20.6 91 91 SSW 9 15 30.08 1019 10 16.0934 0 0
3:52 am 03:52 Clear 72 22.2 69 20.6 91 91 S 8 13 30.06 1018 10 16.0934 0 0
4:52 am 04:52 Mostly Cloudy 72 22.2 70 21.1 94 94 S 10 17 30.06 1018 10 16.0934 0 0
5:36 am 05:36 Mostly Clear 72 22 70 21 94 94 S 8 13 30.06 1018 10 16.0934 0 0
5:49 am 05:49 Cloudy 72 22 70 21 94 94 SSW 6 9 30.06 1018 10 16.0934 0 0
5:52 am 05:52 Mostly Cloudy 72 22.2 70 21.1 94 94 SSW 7 11 30.06 1018 10 16.0934 0 0
6:40 am 06:40 Cloudy 72 22 70 21 94 94 S 9 15 30.06 1018 10 16.0934 0 0
6:52 am 06:52 Cloudy 72 22.2 70 21.1 94 94 SSW 8 13 30.07 1018 10 16.0934 0 0
7:04 am 07:04 Cloudy 72 22 70 21 94 94 S 7 11 30.09 1019 10 16.0934 0 0
7:52 am 07:52 Cloudy 72 22.2 71 21.7 97 97 S 7 11 30.08 1019 10 16.0934 0 0
8:52 am 08:52 Cloudy 75 23.9 72 22.2 90 90 S 9 15 30.08 1019 10 16.0934 0 0
9:08 am 09:08 Cloudy 75 24 72 22 89 89 S 9 15 30.09 1019 10 16.0934 0 0
9:34 am 09:34 Cloudy 75 24 72 22 89 89 S 12 19 30.09 1019 10 16.0934 0 0
9:52 am 09:52 Mostly Cloudy 76 24.4 72 22.2 88 88 S 10 17 30.09 1019 10 16.0934 0 0
10:25 am 10:25 Mostly Cloudy 78 25.6 72 22.2 82 82 S 12 19 30.09 1019 10 16.0934 0 0
10:52 am 10:52 Partly Cloudy 79 26.1 72 22.2 79 79 S 13 20 30.09 1019 10 16.0934 0 0
11:52 am 11:52 Mostly Cloudy 81 27.2 72 22.2 74 74 S 12 19 30.07 1018 10 16.0934 0 0
12:52 pm 12:52 Mostly Cloudy 84 28.9 72 22.2 67 67 S 10 17 30.06 1018 10 16.0934 0 0
1:52 pm 13:52 Mostly Cloudy 88 31.1 69 20.6 54 54 S 15 24 30.03 1017 10 16.0934 0 0
2:52 pm 14:52 Mostly Cloudy 87 30.6 71 21.7 59 59 S 12 19 30.01 1016 10 16.0934 0 0
3:52 pm 15:52 Mostly Cloudy 87 30.6 68 20 53 53 S 9 15 29.99 1016 10 16.0934 0 0
4:52 pm 16:52 Mostly Cloudy 86 30 69 20.6 57 57 SW 8 13 29.98 1015 10 16.0934 0 0
5:52 pm 17:52 Mostly Cloudy 85 29.4 71 21.7 63 63 S 6 9 29.98 1015 10 16.0934 0 0
6:52 pm 18:52 Mostly Cloudy 84 28.9 70 21.1 63 63 SW 5 7 29.99 1016 10 16.0934 0 0
7:52 pm 19:52 Mostly Cloudy 82 27.8 71 21.7 69 69 SE 9 15 29.99 1016 10 16.0934 0 0
8:52 pm 20:52 Mostly Cloudy 81 27.2 71 21.7 72 72 SSE 10 17 30 1016 10 16.0934 0 0
9:52 pm 21:52 Mostly Cloudy 80 26.7 73 22.8 79 79 S 10 17 29.99 1016 10 16.0934 0 0
10:52 pm 22:52 Cloudy 79 26.1 74 23.3 85 85 S 8 13 30 1016 10 16.0934 0 0
11:52 pm 23:52 Cloudy 79 26.1 74 23.3 85 85 S 8 13 30.01 1016 10 16.0934 0 0

Powered by AerisWeather